Regional Weather Roundup
Issued by NWS Sioux Falls, SD

Home | Current Version | Previous Version | Text Only | Print | Product List | Glossary On
Versions: 1 2 3 4 5 6 7 8 9 10 11 12 13 14 15 16 17 18 19 20 21 22 23 24 25 26 27 28 29 30 31 32 33 34 35 36 37 38 39 40 41 42 43 44 45 46 47 48 49 50
000
ASUS43 KFSD 060010
RWRFSD

WEATHER ROUNDUP FOR SE SOUTH DAKOTA/SW MINNESOTA/NW IOWA
NATIONAL WEATHER SERVICE SIOUX FALLS SD
700 PM CDT TUE MAY 05 2015

NOTE: "FAIR" INDICATES FEW OR NO CLOUDS BELOW 12,000 FEET WITH NO
SIGNIFICANT WEATHER AND OR OBSTRUCTIONS TO VISIBILITY.


SDZ038>040-050-052>070-060100-
SOUTHEAST SOUTH DAKOTA

CITY           SKY/WX    TMP DP  RH WIND       PRES   REMARKS
BROOKINGS      CLOUDY    63  57  82 SE15      30.01S
CHAMBERLAIN    CLOUDY    60  58  93 SE9       29.93F
6HR MIN TEMP:  58; 6HR MAX TEMP:  65; 6HR PCP:  0.04;

HURON          LGT RAIN  64  60  87 S7        29.94F
6HR MIN TEMP:  63; 6HR MAX TEMP:  77; 6HR PCP: TRACE;

MADISON        FAIR      66  57  72 SE13      29.99S
MITCHELL       CLOUDY    65  59  81 SE7       29.96F
6HR MIN TEMP:  64; 6HR MAX TEMP:  70; 6HR PCP: TRACE;

SIOUX FALLS    CLOUDY    68  58  70 E12       29.98F
6HR MIN TEMP:  66; 6HR MAX TEMP:  70;

WINNER         MOCLDY    62  58  86 E9        29.91F
YANKTON        CLOUDY    73  57  56 S15       29.93S
$$

MNZ071-072-080-081-089-090-097-098-060100-
SOUTHWEST MINNESOTA

CITY           SKY/WX    TMP DP  RH WIND       PRES   REMARKS
FAIRMONT       CLOUDY    57  52  82 E15       30.07F
JACKSON        CLOUDY    59  55  88 E14       30.07F
LUVERNE        CLOUDY    66  57  72 E14G20    30.02S
MARSHALL       CLOUDY    61  52  72 SE18      30.03F
6HR MIN TEMP:  61; 6HR MAX TEMP:  66;

MONTEVIDEO     CLOUDY    63  54  72 S15       30.05S
PIPESTONE      CLOUDY    64  57  77 SE10      30.02S
REDWOOD FALLS  CLOUDY    60  54  80 SE15G23   30.06F
TRACY          CLOUDY    62  56  82 SE15      30.05S
WINDOM         CLOUDY    59  55  88 SE13      30.07S
WORTHINGTON    CLOUDY    59  54  82 E15       30.05F
$$

IAZ001>003-012>014-020>022-031-032-NEZ013-014-SDZ071-060100-
NORTHWEST IOWA

CITY           SKY/WX    TMP DP  RH WIND       PRES   REMARKS
CHEROKEE       CLOUDY    66  63  90 E17       30.01S
DENISON        CLOUDY    73  61  64 S6        29.98S
ESTHERVILLE    CLOUDY    58  57  97 E14       30.05F
LE MARS        CLOUDY    75  57  53 S13       29.98S
ORANGE CITY    CLOUDY    66  61  82 E9G17     29.99S
SHELDON        CLOUDY    64  64 100 E17       30.00F
SIOUX CITY     CLOUDY    74  58  57 SE10      29.97S
6HR MIN TEMP:  63; 6HR MAX TEMP:  77; 6HR PCP: TRACE;

SPENCER        CLOUDY    62  60  93 E13       30.04F
6HR MIN TEMP:  59; 6HR MAX TEMP:  63; 6HR PCP: TRACE;

STORM LAKE     CLOUDY    66  64  94 E10       30.03S FOG
$$

ABBREVIATIONS USED IN REMARKS
   TC - TEMPERATURE IN CELSIUS
  WCI - WIND CHILL INDEX
   HX - HEAT INDEX
  VSB - VISIBILITY



USA.gov is the U.S. government's official web portal to all federal, state and local government web resources and services.